Temperature
18 17 18 18 18 18 18 18 18 18 18 18 18 18 18 18 18 18 18 18 18 18 18 18 18 18 19 19 19 19 19 18 18 18 18 18 18 18 18 18 18 18 18
18 17 18 18 18 18 18 18 18 18 18 18 18 18 18 18 18 18 18 18 18 18 18 18 18 18 18 19 19 19 18 18 18 18 18 18 18 18 18 18 18 18 18
18 17 18 18 18 18 18 18 18 18 18 18 18 18 18 18 18 18 18 18 18 18 18 18 18 18 18 18 18 18 18 18 18 18 18 17 17 18 18 18 18 18 18
18 17 17 18 18 18 18 18 18 18 17 17 17 17 17 17 17 17 17 17 18 18 18 18 18 18 18 18 18 18 18 18 18 18 17 17 17 18 18 18 18 18 18
17 17 17 18 18 18 18 17 17 17 17 17 17 17 17 17 17 17 17 17 17 17 17 17 17 17 18 18 18 18 18 18 18 18 17 17 17 18 18 18 18 18 18
17 17 17 18 17 17 17 17 17 17 17 17 17 17 16 16 17 17 17 17 17 17 17 17 17 17 17 18 18 18 18 18 18 17 17 17 17 18 18 18 18 18 18
18 17 17 18 17 17 17 17 17 16 16 16 16 16 16 16 16 16 16 16 16 16 17 17 17 17 17 17 17 18 18 18 17 17 17 17 17 18 18 18 18 18 18
18 17 17 17 17 17 17 16 16 16 16 16 16 16 16 16 16 16 16 16 16 16 16 16 17 17 17 17 17 17 18 18 17 17 17 17 17 18 18 18 18 18 18
18 17 17 17 16 16 16 16 16 16 16 16 15 15 15 15 15 15 16 16 16 16 16 16 16 16 17 17 17 17 17 17 17 17 17 17 17 18 18 18 18 18 18
18 17 17 17 17 16 16 16 16 16 15 15 15 15 15 15 15 15 15 15 15 15 16 16 16 16 16 17 17 17 17 17 17 17 17 17 17 18 18 18 18 18 18
18 18 17 17 17 16 16 16 15 15 15 15 15 15 15 15 15 15 15 15 15 15 15 15 16 16 16 16 17 17 17 17 17 17 17 17 18 18 17 18 18 18 18
19 18 18 17 17 17 16 16 15 15 15 15 15 15 15 15 15 15 15 15 15 15 15 15 15 16 16 16 16 16 16 16 17 17 17 17 17 17 17 17 18 18 18
19 18 18 18 17 17 16 16 16 15 15 15 15 14 14 14 15 15 15 15 15 15 15 15 15 15 15 16 16 16 16 16 17 17 17 17 17 17 17 17 17 18 17
19 18 18 18 17 17 16 16 16 16 15 15 15 14 14 14 14 15 14 14 14 14 14 14 15 15 15 16 16 16 16 16 16 16 17 17 17 17 17 17 17 17 17
19 18 18 17 17 17 16 16 16 15 15 15 14 14 14 14 14 14 14 14 14 14 14 14 15 15 15 15 15 16 16 16 16 16 16 17 17 17 17 17 17 17 17
19 19 18 18 17 17 16 16 16 15 15 15 14 14 14 14 14 14 14 14 14 14 14 14 14 14 15 15 15 15 15 16 16 16 16 16 17 17 17 17 17 17 17
20 19 18 18 17 17 16 16 16 15 15 15 14 14 14 14 14 14 14 14 14 14 14 14 14 14 14 15 15 15 15 15 15 16 16 16 16 17 17 17 17 17 17
20 19 19 18 18 17 16 16 16 15 15 14 14 14 14 14 14 13 13 13 13 13 13 14 14 14 14 15 15 15 15 15 15 16 16 16 16 16 16 17 17 17 17
20 19 19 18 18 17 17 16 16 15 15 14 14 14 13 13 13 13 13 13 13 13 13 13 14 14 14 14 15 15 15 15 15 15 16 16 16 16 16 16 17 17 17
20 19 19 18 18 17 17 16 16 15 14 14 14 13 13 13 13 13 13 13 13 13 13 13 13 13 14 14 14 15 15 15 15 15 15 16 16 16 16 16 16 16 17
20 20 19 19 18 18 17 16 15 15 14 14 14 13 13 13 13 13 13 13 13 13 13 13 13 13 14 14 14 15 15 15 15 15 15 15 16 16 16 16 16 16 16
20 20 19 19 18 18 17 16 16 15 14 14 14 13 13 13 13 13 13 13 13 13 13 13 13 13 14 14 14 15 15 15 15 15 15 15 15 15 16 16 16 16 16
20 20 19 19 18 18 17 17 16 15 15 14 14 13 13 13 13 12 13 13 13 13 13 13 13 13 13 14 14 14 15 15 15 15 15 15 15 15 15 16 16 16 16
20 20 19 19 18 18 17 17 16 15 15 14 14 14 13 13 13 13 12 12 13 13 13 13 13 13 13 13 14 14 14 14 15 15 15 15 15 15 15 15 16 16 16
20 20 19 19 19 18 18 17 16 16 15 15 14 14 13 13 13 13 12 12 13 13 13 13 13 13 13 13 13 13 14 14 15 15 15 14 15 15 15 15 15 16 16
21 20 20 19 19 18 18 17 16 16 15 15 14 14 14 14 13 13 13 13 13 13 12 13 13 13 13 13 13 13 14 14 14 14 15 14 14 14 15 15 15 15 16
Wind_Speed
6 7 9 7 8 8 8 8 8 7 7 6 6 5 5 4 3 3 2 2 2 2 3 3 3 3 3 3 4 4 4 4 5 4 3 3 3 3 3 3 2 3 6
8 8 9 7 8 8 8 7 7 7 6 5 5 4 4 3 3 2 2 1 2 2 2 2 2 3 3 3 3 3 3 4 4 4 3 0 1 2 2 3 4 5 4
9 8 9 8 7 7 7 7 6 6 5 4 4 4 3 3 2 2 2 2 2 2 3 3 3 2 3 3 3 3 3 3 4 4 5 3 2 2 2 2 3 3 4
9 8 9 9 8 7 7 6 6 5 5 4 4 3 3 3 3 3 3 3 3 3 3 3 3 3 3 3 3 3 3 3 4 5 5 2 1 4 2 1 2 2 3
9 8 9 8 7 7 6 6 6 6 5 5 4 4 3 3 3 3 3 4 4 4 4 4 4 4 3 3 3 4 4 4 4 7 3 3 2 3 2 1 1 1 2
9 8 10 7 7 6 6 6 6 5 5 5 5 5 4 4 4 4 4 5 5 5 5 4 4 4 4 4 3 3 4 4 7 4 3 3 2 3 2 1 1 1 1
9 8 10 7 7 6 6 6 6 6 6 6 5 5 5 5 5 4 5 5 6 6 6 5 5 5 5 4 4 4 4 5 7 4 4 3 2 3 2 1 1 0 1
8 7 9 8 6 6 6 6 6 6 5 5 6 6 5 5 5 5 5 6 6 6 6 6 5 5 5 5 5 5 5 8 6 5 4 3 2 2 2 1 2 1 0
7 6 6 7 7 6 5 5 5 5 5 5 5 5 5 5 5 5 6 6 6 6 6 6 6 5 5 6 6 6 6 6 8 6 5 3 2 3 3 2 2 2 1
6 5 4 4 4 4 4 6 4 5 5 4 4 5 4 2 2 3 4 5 6 6 6 6 6 5 5 5 6 6 6 8 9 6 5 1 2 3 3 2 3 3 2
5 4 3 3 2 2 2 4 2 2 3 1 1 2 4 5 5 3 6 6 6 6 6 5 6 5 6 6 6 6 7 8 6 6 5 3 2 4 3 2 3 4 4
6 4 3 2 1 1 1 1 1 1 2 3 5 5 5 5 5 6 1 2 3 4 5 3 5 6 8 6 5 7 7 7 6 6 3 2 3 4 3 3 3 5 5
5 4 3 2 1 1 0 1 2 2 2 3 4 4 4 5 4 5 5 2 3 4 5 3 6 5 5 3 5 5 6 6 5 5 2 2 3 3 3 3 3 4 5
4 3 2 2 1 1 1 1 2 2 3 3 4 5 5 4 5 5 4 5 5 4 4 5 4 5 5 5 5 6 5 5 5 4 2 2 3 3 4 4 4 4 5
4 4 3 2 1 1 0 1 2 2 3 3 4 4 5 5 5 4 4 4 5 5 4 4 5 4 5 5 5 5 5 5 5 5 3 4 3 3 3 4 5 5 5
5 4 3 3 2 1 1 1 2 2 1 3 4 5 5 5 5 5 4 4 5 5 5 5 5 4 4 4 4 4 5 5 4 4 5 5 5 4 3 3 4 5 5
5 4 4 3 2 1 0 1 1 1 2 3 4 5 5 5 5 5 5 5 5 6 5 5 5 5 4 4 4 4 4 4 4 4 4 4 5 6 5 3 3 4 5
5 5 5 4 3 2 1 1 0 1 2 2 3 4 5 5 6 5 5 5 5 5 5 4 4 4 4 4 3 3 3 3 4 4 4 4 4 4 6 5 5 6 6
6 6 5 5 4 3 2 2 0 0 1 2 3 4 5 6 6 5 4 5 6 5 5 5 4 4 4 3 3 2 2 2 3 4 4 3 4 4 4 6 7 8 7
7 6 6 5 5 4 3 2 1 1 1 1 2 3 5 5 6 5 4 5 6 4 5 5 4 3 3 3 3 1 1 1 2 2 3 2 3 4 3 4 5 8 8
8 8 7 7 6 5 3 2 1 1 1 1 2 3 3 4 5 5 5 5 5 5 5 5 5 3 3 2 2 1 2 1 1 0 1 1 2 2 3 3 4 5 7
9 9 8 8 7 6 3 2 1 1 2 1 2 1 3 4 5 5 5 5 4 5 5 6 5 4 3 2 2 2 2 2 1 1 0 0 1 2 2 3 4 4 4
9 9 8 8 8 7 5 3 2 1 2 2 2 1 2 3 4 4 5 5 5 5 5 5 5 4 3 2 2 2 2 1 1 1 1 1 1 1 2 2 2 4 4
8 8 8 8 8 7 6 5 4 2 2 2 2 2 2 2 3 4 4 5 5 5 5 5 4 4 4 3 2 2 2 2 1 1 1 1 2 2 2 2 2 3 4
6 7 7 8 8 8 7 6 5 4 3 2 2 2 3 2 2 3 4 4 4 4 5 5 4 4 3 3 3 2 2 2 2 1 1 2 2 1 1 2 2 2 3
5 6 7 8 8 8 8 7 6 5 4 3 3 3 3 2 2 2 3 4 4 4 4 4 4 3 3 3 3 2 2 2 2 1 1 2 2 1 1 2 1 2 3
Wind_Direction
132 127 118 124 120 116 112 111 113 110 106 103 102 104 107 107 100 86 72 70 68 56 45 47 43 39 38 46 42 37 36 34 36 38 38 41 43 44 44 29 341 56 53
127 123 118 119 116 113 112 113 112 110 105 101 96 90 86 84 81 75 55 33 31 29 18 21 27 16 11 26 29 25 23 19 20 17 356 274 108 44 29 19 359 34 43
125 123 124 113 111 109 106 106 104 102 98 92 85 80 69 57 46 36 23 6 357 352 347 348 356 352 348 357 2 4 7 6 4 353 289 268 125 96 22 20 18 33 40
121 118 110 109 106 104 100 97 95 90 83 73 64 59 48 34 18 357 351 346 342 333 329 330 326 328 334 339 344 346 346 347 347 304 277 336 344 82 16 10 14 28 42
117 113 107 110 105 99 94 89 85 80 71 62 53 45 37 20 1 346 336 329 325 320 317 312 309 314 322 326 328 330 327 331 315 280 324 330 327 62 360 357 348 13 44
119 114 108 108 102 96 91 85 78 70 62 54 44 36 27 14 3 350 336 327 322 314 305 301 295 298 304 305 311 314 310 319 286 291 309 301 309 63 338 334 337 350 29
121 115 111 106 103 95 87 81 74 66 58 50 42 35 26 14 359 343 330 322 318 313 306 300 288 285 286 289 290 295 296 301 285 288 285 288 351 17 318 323 297 297 356
120 117 114 115 103 91 83 79 72 63 54 44 37 30 21 11 1 348 335 326 321 317 312 303 290 283 281 281 281 281 284 289 273 280 276 277 32 333 288 278 263 258 265
126 123 117 119 122 115 91 77 69 59 47 39 29 21 13 8 358 349 339 332 325 320 312 304 297 284 279 276 276 278 280 286 280 271 274 271 67 300 271 249 229 230 224
138 132 124 112 100 106 113 95 70 57 47 39 33 21 357 310 305 326 312 354 333 327 319 309 304 295 280 273 273 275 274 263 257 262 264 258 58 288 270 250 216 212 207
156 153 147 138 114 96 75 96 108 100 62 339 84 53 303 327 346 318 12 359 340 335 327 317 307 298 280 246 243 265 261 255 252 263 264 45 323 284 265 250 218 205 200
167 166 162 165 150 137 54 71 8 354 21 348 354 349 339 345 341 330 28 346 338 327 292 290 292 265 259 255 217 222 248 247 248 251 244 72 288 280 254 241 223 203 198
164 164 175 185 187 247 177 332 350 346 348 340 350 342 331 328 323 327 326 311 310 302 306 298 268 269 272 277 283 261 257 260 248 251 231 124 266 265 246 240 216 201 202
181 181 187 203 213 251 315 330 306 331 344 350 350 343 338 338 328 338 324 332 323 323 327 313 305 295 286 272 262 263 249 247 248 248 217 155 248 236 223 224 209 198 206
186 195 193 215 249 244 331 305 310 351 345 4 359 343 342 334 336 334 330 332 322 324 315 309 302 305 293 283 273 268 265 249 244 243 214 169 221 224 212 213 200 193 194
197 199 184 200 213 217 230 284 355 359 8 355 1 352 347 345 341 334 332 335 333 329 326 310 307 299 286 285 279 272 264 258 245 234 234 187 180 193 185 191 189 185 183
198 197 185 188 188 203 236 4 356 346 357 360 2 353 355 354 345 342 337 338 339 333 324 313 311 299 287 282 270 263 259 261 257 241 232 220 191 170 164 172 184 178 184
201 197 183 180 186 178 166 178 22 359 2 358 360 355 357 358 353 349 342 341 338 331 326 319 309 301 289 283 276 264 254 249 255 254 234 216 203 192 168 162 181 179 187
205 202 190 183 181 168 157 157 155 21 2 352 359 4 358 356 350 352 350 340 338 335 333 324 325 313 304 293 273 257 256 251 254 246 230 213 193 190 179 154 170 177 182
202 203 192 176 179 162 167 182 173 229 287 344 354 8 356 348 350 347 343 346 345 343 342 339 332 313 308 300 277 255 243 244 244 239 238 213 193 180 180 168 171 173 174
197 198 192 185 177 172 175 203 225 249 275 307 344 358 343 343 345 347 337 349 344 349 346 345 333 315 317 315 283 224 181 184 185 170 236 223 183 171 182 170 180 172 167
197 198 196 192 183 184 187 199 218 280 285 317 302 309 331 340 345 342 345 345 351 344 347 350 342 326 328 327 300 265 215 183 173 118 104 192 189 161 173 173 187 173 169
202 201 200 194 186 187 182 181 187 205 242 244 270 300 332 336 339 342 345 344 348 347 352 345 343 338 330 337 347 316 286 249 158 136 100 100 96 133 149 155 173 169 162
206 203 204 195 194 186 184 197 214 249 287 305 304 311 307 315 329 334 334 337 344 350 349 346 355 333 325 334 345 329 318 333 271 173 143 115 89 93 120 134 140 135 147
200 200 203 195 196 190 198 201 220 240 268 279 279 283 292 311 317 323 328 332 339 344 351 349 348 343 337 333 329 320 315 298 282 253 167 147 115 76 71 101 122 113 118
191 195 198 196 198 194 202 210 221 235 246 258 262 277 282 287 301 315 316 319 325 337 344 343 342 345 343 342 330 333 322 312 310 284 200 149 119 87 80 72 82 93 99
Height
1522 1523 1523 1524 1525 1526 1527 1528 1528 1529 1529 1530 1530 1531 1531 1531 1531 1531 1531 1531 1531 1531 1531 1530 1530 1529 1529 1529 1528 1528 1527 1527 1526 1526 1525 1525 1525 1524 1524 1523 1523 1522 1520
1523 1524 1524 1525 1526 1527 1528 1528 1529 1530 1530 1530 1531 1531 1531 1531 1531 1531 1531 1531 1531 1531 1531 1530 1530 1530 1529 1529 1528 1528 1528 1527 1527 1526 1526 1526 1525 1525 1524 1524 1523 1523 1521
1524 1525 1525 1526 1527 1528 1529 1529 1530 1530 1530 1531 1531 1531 1531 1531 1531 1531 1531 1531 1531 1531 1531 1530 1530 1530 1529 1529 1529 1528 1528 1527 1527 1527 1527 1527 1527 1525 1525 1525 1524 1523 1522
1526 1527 1528 1527 1528 1529 1529 1530 1530 1530 1530 1531 1531 1531 1531 1530 1530 1530 1531 1530 1530 1530 1530 1530 1530 1530 1529 1529 1528 1528 1528 1528 1527 1527 1528 1528 1528 1526 1526 1525 1525 1524 1524
1527 1528 1528 1528 1529 1529 1530 1530 1530 1530 1530 1530 1530 1530 1530 1530 1530 1530 1530 1530 1530 1529 1529 1529 1529 1529 1529 1528 1528 1528 1528 1528 1527 1528 1528 1528 1527 1526 1526 1526 1525 1525 1525
1529 1530 1529 1529 1530 1530 1530 1530 1530 1530 1530 1530 1530 1530 1529 1529 1529 1529 1529 1529 1529 1528 1528 1528 1528 1528 1528 1527 1527 1527 1527 1527 1527 1528 1528 1527 1528 1526 1526 1526 1526 1526 1525
1531 1531 1531 1530 1531 1531 1531 1530 1530 1530 1530 1530 1529 1529 1528 1528 1528 1527 1527 1527 1527 1527 1527 1527 1527 1527 1526 1526 1526 1527 1527 1527 1527 1528 1527 1527 1527 1526 1526 1526 1526 1526 1526
1532 1533 1532 1531 1531 1531 1531 1531 1531 1530 1530 1530 1529 1529 1528 1527 1527 1526 1526 1526 1526 1525 1525 1525 1525 1525 1525 1525 1525 1525 1526 1526 1527 1528 1527 1527 1526 1526 1526 1526 1526 1526 1527
1533 1534 1534 1534 1533 1532 1532 1532 1531 1531 1530 1530 1529 1528 1528 1527 1526 1525 1525 1524 1524 1524 1523 1523 1523 1523 1523 1523 1524 1524 1524 1524 1525 1527 1527 1527 1526 1526 1526 1526 1526 1527 1527
1534 1534 1535 1535 1535 1535 1534 1532 1532 1531 1531 1530 1529 1528 1527 1527 1526 1525 1524 1523 1523 1522 1522 1521 1521 1521 1521 1522 1522 1522 1523 1523 1524 1526 1526 1526 1525 1525 1526 1526 1526 1527 1527
1535 1535 1535 1536 1536 1535 1535 1534 1533 1532 1531 1530 1530 1528 1528 1528 1527 1526 1524 1522 1522 1521 1520 1520 1520 1519 1519 1520 1520 1520 1521 1523 1524 1524 1525 1524 1524 1524 1525 1525 1526 1527 1527
1535 1536 1536 1536 1536 1536 1535 1535 1534 1534 1532 1531 1531 1529 1529 1527 1526 1525 1523 1521 1520 1520 1519 1518 1518 1518 1518 1520 1519 1519 1520 1521 1522 1523 1523 1522 1523 1523 1524 1525 1525 1526 1527
1536 1536 1536 1537 1536 1536 1536 1535 1535 1534 1532 1532 1530 1529 1528 1527 1526 1525 1524 1522 1521 1519 1519 1518 1518 1518 1518 1518 1518 1518 1519 1520 1520 1521 1521 1520 1521 1522 1523 1524 1525 1526 1527
1536 1536 1536 1536 1536 1536 1536 1535 1534 1534 1533 1532 1530 1529 1528 1527 1525 1524 1523 1522 1520 1519 1517 1517 1516 1516 1516 1516 1516 1516 1517 1517 1518 1519 1519 1519 1520 1521 1522 1523 1524 1525 1526
1535 1536 1536 1536 1536 1536 1535 1534 1534 1533 1533 1532 1529 1529 1527 1526 1525 1524 1523 1520 1520 1518 1517 1516 1516 1515 1514 1514 1514 1514 1515 1515 1516 1516 1517 1517 1518 1519 1520 1521 1523 1524 1525
1535 1535 1535 1535 1535 1535 1535 1535 1534 1533 1532 1531 1530 1529 1527 1526 1525 1523 1522 1520 1519 1517 1516 1515 1515 1513 1513 1512 1512 1512 1512 1514 1514 1514 1515 1516 1517 1518 1519 1520 1522 1523 1524
1534 1535 1535 1535 1535 1535 1535 1534 1534 1533 1532 1531 1530 1529 1527 1526 1524 1523 1521 1520 1518 1516 1515 1514 1513 1512 1511 1511 1511 1511 1511 1511 1512 1513 1514 1515 1516 1516 1517 1519 1520 1522 1523
1533 1534 1534 1534 1534 1534 1534 1533 1533 1533 1532 1531 1529 1528 1527 1525 1524 1522 1520 1519 1517 1516 1514 1513 1512 1511 1510 1510 1509 1509 1509 1509 1510 1511 1512 1513 1514 1515 1516 1517 1519 1521 1522
1532 1532 1533 1533 1533 1533 1533 1532 1532 1532 1531 1530 1529 1528 1526 1525 1523 1522 1520 1518 1517 1515 1514 1512 1511 1510 1509 1508 1508 1508 1508 1508 1508 1509 1511 1512 1512 1513 1515 1516 1518 1520 1521
1530 1531 1532 1532 1533 1533 1532 1533 1532 1531 1531 1530 1529 1527 1525 1524 1523 1522 1520 1518 1516 1515 1513 1511 1510 1509 1508 1507 1507 1507 1507 1507 1507 1508 1509 1510 1511 1512 1513 1515 1517 1519 1520
1528 1529 1531 1531 1532 1532 1532 1532 1532 1532 1531 1530 1528 1526 1525 1524 1522 1521 1520 1518 1516 1514 1512 1511 1509 1509 1508 1507 1507 1507 1506 1506 1507 1507 1507 1509 1510 1511 1512 1514 1516 1517 1519
1526 1528 1530 1531 1531 1531 1531 1532 1531 1530 1530 1529 1527 1526 1525 1524 1522 1521 1520 1518 1516 1514 1512 1511 1509 1508 1507 1506 1506 1506 1506 1508 1506 1506 1506 1507 1509 1510 1511 1513 1514 1516 1518
1525 1526 1528 1529 1530 1530 1530 1530 1530 1530 1529 1528 1528 1526 1525 1523 1522 1521 1520 1518 1516 1515 1513 1510 1509 1508 1507 1507 1506 1506 1506 1506 1506 1506 1506 1507 1507 1509 1510 1512 1513 1515 1517
1523 1525 1527 1528 1529 1529 1529 1530 1530 1530 1529 1529 1528 1526 1525 1523 1522 1520 1519 1518 1517 1515 1513 1511 1509 1508 1507 1507 1506 1505 1506 1506 1506 1506 1506 1506 1507 1508 1509 1511 1512 1514 1515
1521 1523 1524 1526 1527 1527 1528 1528 1528 1529 1528 1528 1526 1526 1525 1524 1522 1520 1519 1518 1517 1515 1513 1511 1509 1508 1507 1507 1506 1506 1505 1505 1506 1506 1506 1507 1507 1507 1508 1510 1512 1513 1514
1519 1521 1522 1523 1525 1526 1526 1527 1527 1527 1527 1526 1526 1525 1524 1524 1522 1521 1519 1518 1517 1515 1513 1511 1510 1508 1507 1506 1506 1506 1505 1505 1506 1506 1506 1506 1506 1507 1508 1509 1511 1512 1514